Wind_Speed
26 24 21 17 14 13 13 15 18 21 22 25 27 29 31 32 34 39 43 46 50 52 56 60 63 65 67 70 72 74 70 67 67 69 73 78 81 81 83 81 84 83 82 79 77
26 25 22 20 18 18 19 20 21 23 27 30 32 32 32 33 35 40 44 47 50 53 57 61 66 69 72 75 77 79 76 74 77 77 77 81 83 87 86 84 87 87 87 85 79
25 25 25 24 25 24 23 24 26 28 31 34 34 35 36 38 39 45 48 53 55 58 63 66 70 74 78 80 84 87 82 83 83 86 84 84 85 87 86 89 91 88 91 90 81
24 27 26 27 29 28 28 30 31 33 35 37 38 40 42 43 45 49 54 57 59 63 69 74 78 82 86 90 94 96 93 91 90 92 91 89 89 89 91 89 95 95 94 88 83
25 27 28 29 31 31 33 35 36 38 39 41 42 45 47 48 52 53 58 61 63 69 75 81 86 91 96 102 107 107 108 107 104 101 100 100 96 94 92 93 97 98 99 92 87
26 28 29 31 31 34 36 38 41 41 42 43 44 47 51 52 55 56 65 68 72 78 85 91 95 98 99 104 112 120 120 117 115 112 110 109 106 106 95 98 102 104 100 93 98
30 32 31 32 35 38 41 44 47 47 48 47 48 51 56 59 59 61 67 74 79 85 91 92 91 95 103 106 113 119 124 127 125 123 120 120 120 113 106 107 110 108 104 98 96
33 33 33 36 38 41 45 50 53 57 56 55 53 57 59 63 68 69 71 78 84 89 91 86 87 85 83 85 92 100 106 115 127 133 130 134 126 122 118 118 116 115 109 102 98
36 36 37 39 42 46 50 55 60 65 65 63 61 62 67 69 79 79 80 83 85 86 82 76 67 64 63 65 71 78 85 97 107 119 136 138 132 127 123 126 123 120 114 107 102
39 41 42 45 49 52 55 60 65 70 71 68 67 72 75 79 81 84 86 85 82 77 72 62 52 48 49 50 56 63 69 80 89 103 114 129 138 133 129 131 127 125 121 113 107
42 46 47 50 54 57 60 63 70 72 71 74 77 79 82 84 89 86 89 83 76 69 62 52 43 40 38 40 44 51 53 63 72 88 101 108 119 128 134 136 131 128 125 118 111
47 49 52 55 58 63 68 71 72 73 76 81 85 87 91 92 91 88 83 74 67 63 55 48 40 36 35 37 37 38 43 53 59 71 84 93 102 109 126 140 137 135 129 122 116
49 52 56 60 64 69 74 75 76 78 83 87 90 97 94 96 90 85 73 65 58 56 50 41 38 34 31 33 33 35 37 40 48 56 66 81 90 96 109 124 135 137 136 131 119
54 58 63 66 71 76 76 78 82 87 91 94 93 93 96 89 81 72 61 55 54 51 44 32 27 25 27 26 27 31 29 32 39 46 57 68 70 83 96 111 124 133 138 133 128
58 63 67 72 77 79 82 88 91 95 99 100 102 96 90 75 70 64 56 50 49 42 37 28 26 26 27 24 23 28 25 27 32 37 48 61 60 72 88 98 109 120 128 133 132
65 68 73 76 78 81 87 91 98 101 101 99 103 91 81 73 67 56 49 47 43 37 31 30 28 27 28 27 24 23 22 25 27 30 40 53 45 65 70 81 94 106 119 125 132
70 74 78 80 83 88 93 97 98 99 106 104 96 85 76 67 58 50 45 40 36 31 29 30 29 27 30 25 27 24 22 22 22 24 33 40 44 55 66 73 83 97 109 116 124
75 77 80 85 90 93 97 100 102 108 106 100 87 82 71 60 52 46 43 39 31 26 24 23 30 30 32 30 28 28 25 22 16 23 27 38 39 50 57 65 75 90 100 109 122
78 79 83 88 92 94 98 102 107 106 102 86 79 72 70 62 50 45 41 38 31 26 25 24 28 37 36 31 31 29 25 23 15 22 25 36 33 42 49 58 66 78 91 100 118
77 85 87 92 97 99 102 106 111 105 96 82 75 67 64 56 46 45 42 34 32 29 30 31 29 37 34 32 30 28 29 24 20 21 24 30 26 37 45 48 56 68 85 97 112
82 86 90 95 97 103 106 109 108 103 92 79 72 66 57 52 48 41 41 36 30 29 31 34 32 29 27 27 28 26 26 26 22 24 22 24 24 33 36 40 52 67 81 91 109
88 92 94 99 100 102 105 103 109 98 83 76 71 63 52 48 48 42 39 32 25 26 29 31 29 29 27 24 23 23 24 25 21 24 19 16 24 28 30 37 46 59 75 85 98
90 95 99 101 103 104 107 105 106 94 78 74 68 59 50 49 42 45 39 30 25 27 25 27 28 25 30 29 26 19 20 20 20 18 16 15 20 24 29 36 44 55 64 70 84
94 96 102 106 107 108 109 110 94 82 72 71 65 56 46 51 42 43 38 28 27 27 29 25 33 32 28 24 22 21 17 18 16 15 15 16 20 25 31 37 43 48 59 72 80
98 102 106 104 107 107 107 99 85 73 70 69 64 55 45 45 49 41 34 26 21 23 27 30 31 30 29 24 22 20 16 13 13 13 14 16 23 27 32 37 43 52 66 69 76
101 101 106 107 108 106 105 90 80 71 68 66 58 54 46 42 44 42 35 23 22 24 27 34 32 31 29 28 22 17 15 12 11 10 13 17 23 31 37 44 54 59 60 63 76
102 105 106 109 106 106 102 84 75 72 69 64 53 48 45 43 42 35 28 23 22 21 25 29 23 24 26 21 20 14 3 5 6 6 7 12 20 31 38 51 56 55 53 63 70
Wind_Direction
4 3 359 350 340 327 314 304 297 293 292 290 290 289 287 282 278 275 270 267 264 262 262 262 260 257 255 254 249 247 246 242 241 242 238 238 237 237 235 234 236 238 236 232 225
4 7 6 1 342 322 311 304 298 294 293 293 292 291 289 286 285 281 276 272 270 267 264 263 262 261 261 259 255 252 249 246 242 239 238 239 239 236 236 236 237 238 238 236 232
352 358 2 359 354 345 327 312 304 300 299 295 293 291 292 291 291 287 283 281 276 274 269 267 265 262 261 260 259 256 253 249 244 239 237 237 240 241 237 237 238 238 239 241 234
343 350 354 354 350 344 337 328 315 307 306 302 297 292 289 289 290 288 284 282 280 279 275 274 271 268 266 264 261 258 255 250 247 242 236 235 236 240 240 238 239 237 239 240 236
338 340 344 344 345 343 340 336 329 318 308 305 300 294 291 292 293 289 286 284 282 280 277 273 271 268 265 262 260 259 255 251 248 246 242 236 235 237 240 240 239 238 238 237 239
330 330 336 337 340 340 340 337 334 327 316 309 304 299 294 294 293 290 289 288 289 286 283 281 277 274 270 265 260 256 252 249 247 245 241 239 237 237 236 237 240 239 237 235 237
323 322 330 331 333 333 334 333 331 330 322 315 309 304 303 300 294 292 292 294 296 295 293 289 283 276 269 263 258 253 249 246 243 240 240 240 235 235 233 233 237 239 238 234 234
322 318 320 324 326 327 329 329 327 326 323 318 313 307 305 305 302 301 300 298 301 299 296 292 285 277 269 262 256 252 248 245 241 240 237 237 235 234 233 234 232 235 235 234 231
316 312 314 318 318 321 323 324 323 322 321 319 315 312 311 310 310 307 304 304 304 303 297 292 286 277 267 260 255 251 246 242 240 238 237 237 235 233 233 233 233 233 234 233 230
315 315 313 313 314 316 320 321 321 321 321 320 319 316 314 311 309 307 309 308 309 305 303 302 291 278 269 261 254 250 246 243 237 238 236 234 236 232 231 232 232 232 232 232 230
318 318 316 315 316 316 317 320 321 320 321 320 317 317 314 314 314 312 311 310 311 310 312 306 300 291 277 265 258 254 249 244 240 238 237 234 233 230 231 231 229 232 231 230 229
318 316 316 318 317 319 321 321 322 323 322 321 319 319 318 318 315 315 315 315 317 317 316 311 308 298 287 278 271 263 250 247 243 238 237 236 233 229 227 228 227 227 229 230 228
316 317 318 319 320 321 321 323 324 323 324 322 323 322 320 320 319 319 319 319 320 321 318 312 302 293 286 277 272 266 258 250 242 239 238 235 233 228 227 228 226 226 226 228 228
319 320 319 320 322 323 323 324 325 326 325 325 323 324 323 323 322 322 320 323 324 321 314 308 305 309 298 289 274 269 260 257 248 239 237 237 232 231 226 225 224 224 225 226 227
320 321 321 323 324 325 326 328 327 327 327 327 325 325 325 326 323 324 324 324 321 319 313 317 320 316 310 302 291 278 268 258 249 242 241 240 228 231 226 224 223 221 222 223 226
322 322 322 324 325 327 328 327 329 330 331 330 331 330 331 331 328 326 326 326 321 321 321 325 326 321 318 313 305 292 281 261 252 242 245 242 228 232 230 225 223 222 218 217 221
321 322 324 325 327 328 329 331 333 333 332 333 334 332 334 330 327 327 326 327 328 325 328 324 315 315 312 313 309 301 292 270 258 245 248 241 235 230 229 223 219 219 216 214 215
321 324 324 325 329 330 330 332 335 335 335 333 333 331 332 333 330 330 329 331 329 326 316 312 307 307 302 301 297 298 295 277 260 250 247 242 232 233 228 226 217 217 216 210 212
323 323 325 327 328 329 330 334 336 334 335 334 333 333 332 330 331 330 332 333 330 326 318 314 307 303 295 296 293 295 290 286 263 251 238 247 233 233 230 223 219 214 214 210 209
322 323 325 327 329 329 333 336 338 337 337 335 335 334 333 329 332 332 330 331 324 330 329 324 314 300 304 303 297 296 289 285 272 257 249 247 230 229 231 224 217 212 211 210 208
322 323 326 327 329 332 335 337 340 337 335 334 335 336 335 329 329 331 329 329 325 332 328 329 328 313 307 302 298 295 285 284 276 266 255 244 225 226 225 218 212 209 207 211 207
323 324 326 327 330 333 334 334 336 336 335 336 338 337 335 329 326 332 327 324 327 331 327 328 339 329 318 309 302 291 285 282 276 270 265 245 236 219 212 210 208 207 206 204 205
321 323 325 327 331 333 333 334 336 338 336 335 336 337 336 328 332 329 329 325 331 332 330 335 338 338 330 316 307 291 283 280 275 265 255 229 220 211 200 202 203 203 205 203 202
322 325 326 330 334 333 333 334 334 335 334 334 335 338 338 327 336 330 330 328 337 334 338 333 326 333 331 315 304 296 279 275 274 263 242 213 209 202 191 194 195 193 193 197 199
323 326 328 332 333 333 336 336 334 336 335 336 334 338 337 333 333 332 331 333 337 340 339 340 326 332 336 324 317 305 298 287 268 258 234 200 194 194 189 183 186 185 193 191 194
324 327 328 331 331 332 338 335 335 339 337 336 336 336 335 335 333 334 332 335 336 342 2 355 328 325 349 336 334 329 303 284 270 243 219 192 182 189 178 174 178 187 191 186 190
324 327 328 329 328 331 333 334 335 341 338 337 338 338 335 336 334 333 326 328 338 345 358 355 342 344 346 336 334 340 312 272 256 237 193 163 184 181 184 176 184 190 180 183 180
Height
10845 10842 10840 10839 10838 10837 10837 10836 10834 10833 10831 10829 10827 10825 10824 10823 10822 10818 10815 10813 10812 10811 10808 10806 10804 10803 10803 10801 10802 10802 10814 10825 10826 10829 10831 10826 10834 10838 10836 10845 10845 10855 10860 10872 10884
10844 10841 10839 10837 10835 10834 10832 10830 10829 10826 10824 10821 10819 10817 10815 10813 10811 10805 10801 10800 10798 10795 10794 10791 10787 10785 10784 10782 10783 10784 10795 10805 10805 10806 10810 10809 10813 10814 10824 10835 10832 10838 10841 10850 10873
10842 10839 10836 10833 10831 10829 10828 10825 10823 10819 10817 10813 10809 10807 10804 10801 10799 10792 10789 10784 10782 10779 10776 10773 10770 10767 10764 10762 10759 10759 10774 10777 10782 10785 10788 10793 10796 10798 10811 10818 10818 10825 10827 10841 10858
10840 10836 10833 10830 10828 10825 10823 10820 10817 10813 10809 10804 10800 10796 10791 10789 10787 10780 10773 10767 10765 10760 10755 10751 10747 10742 10741 10736 10730 10733 10745 10751 10755 10759 10765 10774 10776 10781 10786 10804 10800 10809 10809 10823 10842
10836 10832 10829 10825 10822 10820 10817 10813 10809 10805 10800 10795 10790 10785 10779 10776 10770 10764 10755 10749 10745 10738 10731 10723 10716 10712 10709 10703 10695 10700 10704 10712 10722 10732 10741 10746 10756 10763 10772 10780 10780 10784 10793 10812 10820
10831 10828 10824 10820 10817 10813 10810 10806 10801 10796 10790 10785 10779 10772 10764 10762 10755 10748 10732 10727 10721 10710 10699 10688 10680 10674 10667 10658 10649 10646 10656 10670 10685 10697 10706 10718 10732 10732 10760 10760 10754 10760 10774 10795 10797
10826 10822 10819 10815 10811 10806 10801 10796 10791 10786 10779 10772 10766 10756 10748 10739 10735 10728 10717 10699 10688 10675 10660 10648 10638 10626 10613 10606 10600 10605 10612 10625 10642 10654 10669 10673 10690 10709 10731 10730 10726 10737 10754 10775 10781
10820 10815 10812 10808 10803 10798 10792 10785 10779 10772 10766 10758 10752 10742 10731 10720 10706 10698 10691 10677 10657 10640 10623 10607 10591 10575 10565 10560 10556 10558 10567 10582 10595 10607 10625 10625 10654 10682 10701 10698 10703 10708 10727 10751 10767
10813 10809 10804 10800 10794 10789 10783 10775 10768 10758 10752 10744 10734 10725 10710 10699 10678 10669 10659 10644 10627 10606 10588 10572 10553 10539 10532 10529 10525 10524 10532 10539 10553 10564 10578 10590 10620 10648 10667 10669 10682 10689 10706 10726 10746
10805 10801 10796 10791 10785 10779 10774 10766 10756 10745 10734 10725 10715 10701 10693 10674 10662 10641 10622 10607 10592 10574 10554 10536 10525 10515 10507 10506 10500 10500 10507 10508 10523 10524 10537 10554 10572 10613 10635 10635 10656 10669 10681 10701 10724
10798 10793 10787 10781 10774 10767 10762 10755 10745 10732 10721 10707 10694 10683 10666 10651 10629 10613 10595 10580 10564 10546 10528 10514 10502 10492 10488 10485 10484 10483 10487 10487 10494 10500 10505 10524 10540 10575 10602 10604 10631 10643 10660 10682 10704
10790 10783 10776 10769 10763 10755 10746 10738 10729 10717 10703 10689 10671 10657 10637 10621 10604 10587 10569 10551 10535 10521 10508 10493 10485 10480 10473 10469 10468 10468 10469 10469 10474 10477 10484 10500 10515 10541 10557 10571 10596 10615 10635 10658 10682
10780 10773 10767 10759 10751 10743 10731 10720 10710 10699 10687 10669 10649 10629 10611 10591 10576 10557 10542 10529 10517 10502 10491 10481 10474 10468 10462 10457 10455 10454 10453 10454 10457 10463 10467 10470 10490 10510 10526 10542 10570 10594 10612 10633 10666
10771 10764 10755 10747 10738 10725 10714 10705 10691 10676 10662 10648 10634 10614 10592 10571 10550 10535 10525 10510 10498 10489 10478 10473 10464 10456 10451 10448 10446 10441 10443 10443 10443 10449 10449 10452 10478 10486 10498 10504 10530 10557 10586 10610 10638
10761 10754 10743 10733 10721 10709 10697 10679 10667 10655 10636 10615 10597 10584 10567 10551 10530 10515 10504 10496 10486 10478 10466 10461 10453 10447 10443 10438 10436 10433 10433 10433 10433 10437 10435 10433 10459 10460 10465 10486 10506 10527 10557 10591 10615
10750 10742 10732 10721 10709 10696 10684 10669 10651 10633 10614 10596 10574 10557 10544 10524 10510 10500 10492 10480 10473 10463 10456 10447 10443 10439 10435 10430 10427 10424 10424 10423 10422 10426 10423 10421 10450 10438 10457 10475 10489 10508 10526 10561 10591
10737 10728 10716 10706 10694 10681 10664 10650 10632 10616 10596 10576 10556 10537 10526 10513 10499 10489 10479 10471 10461 10451 10446 10441 10437 10434 10429 10425 10419 10416 10414 10413 10414 10415 10412 10418 10426 10428 10433 10448 10467 10483 10504 10543 10567
10725 10716 10703 10690 10679 10663 10649 10634 10619 10598 10574 10558 10543 10523 10512 10504 10487 10478 10468 10459 10453 10449 10445 10442 10431 10427 10421 10417 10412 10408 10405 10403 10405 10404 10404 10402 10411 10414 10423 10432 10450 10461 10487 10518 10544
10715 10705 10693 10681 10671 10657 10638 10619 10600 10585 10568 10549 10530 10516 10497 10486 10479 10469 10461 10452 10444 10441 10438 10434 10427 10416 10410 10408 10403 10401 10397 10394 10395 10394 10394 10389 10401 10407 10414 10422 10436 10456 10474 10504 10517
10708 10690 10682 10669 10652 10638 10621 10602 10584 10563 10546 10531 10519 10506 10489 10478 10471 10461 10452 10447 10436 10432 10428 10424 10419 10404 10402 10397 10393 10392 10387 10387 10385 10385 10383 10383 10394 10398 10401 10417 10430 10446 10464 10481 10504
10694 10683 10669 10654 10641 10619 10602 10586 10566 10548 10535 10523 10508 10495 10482 10470 10462 10456 10447 10438 10431 10425 10420 10415 10406 10400 10395 10391 10386 10384 10381 10379 10378 10376 10377 10379 10386 10387 10395 10407 10417 10429 10446 10467 10487
10677 10664 10657 10642 10627 10615 10597 10579 10564 10544 10527 10511 10497 10488 10476 10467 10453 10449 10440 10433 10427 10421 10414 10409 10402 10394 10388 10384 10381 10377 10374 10371 10371 10369 10373 10377 10380 10382 10391 10398 10410 10423 10435 10453 10481
10666 10654 10644 10631 10618 10603 10584 10566 10546 10530 10515 10504 10490 10481 10468 10457 10453 10439 10432 10426 10420 10414 10410 10402 10397 10392 10384 10377 10372 10369 10366 10364 10364 10364 10368 10371 10373 10376 10386 10393 10403 10416 10440 10463 10485
10653 10643 10625 10611 10597 10582 10569 10553 10536 10519 10508 10495 10483 10474 10464 10448 10447 10433 10426 10419 10413 10408 10402 10396 10390 10383 10378 10371 10366 10362 10361 10359 10358 10360 10361 10365 10369 10373 10382 10391 10400 10417 10435 10457 10482
10638 10621 10610 10603 10587 10569 10554 10541 10529 10514 10498 10488 10472 10464 10458 10448 10434 10429 10423 10414 10411 10405 10399 10392 10386 10380 10371 10364 10360 10357 10357 10355 10353 10354 10356 10362 10365 10372 10383 10393 10402 10418 10430 10455 10485
10621 10613 10595 10584 10571 10557 10543 10529 10518 10505 10493 10479 10468 10456 10448 10443 10432 10422 10416 10412 10406 10401 10394 10388 10383 10375 10368 10360 10356 10354 10352 10350 10349 10349 10352 10359 10366 10369 10381 10393 10402 10414 10436 10464 10486
10607 10595 10584 10574 10558 10547 10535 10521 10509 10497 10482 10471 10464 10453 10442 10435 10428 10422 10414 10408 10403 10398 10392 10388 10381 10371 10365 10358 10353 10350 10349 10348 10347 10348 10353 10360 10368 10374 10379 10395 10401 10416 10446 10473 10504